[[{"header":{"parameterUnit":"m.s-1","parameterCategory":1,"la1":30.2991,"la2":30.254,"lo1":-89.0895,"lo2":-89.0444,"dy":0.0017,"dx":0.0017,"nx":28,"ny":28,"refTime":"2024-10-17T21:00:00:Z","depth":0,"parameterNumber":2,"parameterNumberName":"U-component_of_WINDS"},"data":[0,0,0,0,0,0,0,0,0,0,0,0,0,0,0,0,0,0,0,0,0,0,0,0,0,0,0,0,0,0,0,0,0,0,0,0,0,0,0,0,0,0,0,0,0,0,0,0,0,0,0,0,0,0,0,0,0,0,-7.2347,-7.2348,0,-7.2369,-7.237,-7.237,-7.2215,-7.221,-7.2206,-7.2202,-7.2223,-7.2227,-7.2232,0,0,0,0,0,0,0,0,0,0,0,0,0,-7.217,-7.2174,-7.2347,-7.2348,-7.2348,-7.2369,-7.237,-7.237,-7.2216,-7.221,-7.2205,-7.22,-7.2221,-7.2227,-7.2232,0,0,0,0,0,0,0,0,0,0,0,0,0,-7.2225,-7.2175,-7.2347,-7.2274,-7.2267,-7.2369,-7.237,-7.237,-7.2217,-7.221,-7.2204,-7.2197,-7.222,-7.2226,-7.2233,-7.2406,0,0,-7.2254,-7.2257,0,0,0,0,0,0,0,0,-7.2222,-7.2232,-7.2284,-7.2279,-7.2272,-7.2283,-7.2314,-7.2382,-7.2218,-7.2236,-7.2202,-7.2194,-7.2248,-7.2252,-7.227,-7.2407,-7.2408,-7.2255,-7.2259,-7.2262,-7.2264,0,0,0,0,0,0,0,-7.2218,-7.223,-7.2356,-7.2285,-7.2278,-7.2239,-7.2239,-7.2327,-7.2278,-7.2234,-7.2223,-7.2227,-7.2243,-7.2264,-7.227,-7.2409,-7.2255,-7.2261,-7.2265,-7.2268,-7.2688,-7.2694,0,0,0,0,0,0,-7.2225,-7.2228,-7.2355,-7.2357,-7.223,-7.2247,-7.2248,-7.2286,-7.2277,-7.2269,-7.2233,-7.222,-7.2256,-7.2262,-7.227,-7.2471,-7.2262,-7.2268,-7.2272,-7.2681,-7.2689,-7.2697,0,0,0,0,0,0,-7.2222,-7.2238,-7.2354,-7.2289,-7.2301,-7.2257,-7.2301,-7.229,-7.231,-7.2276,-7.2267,-7.2263,-7.2251,-7.226,-7.2373,-7.247,-7.2272,-7.2278,-7.2673,-7.2683,-7.2693,-7.2876,0,0,0,0,0,0,-7.2217,-7.2237,-7.2303,-7.2292,-7.2305,-7.2459,-7.2307,-7.2295,-7.2323,-7.2306,-7.2302,-7.2295,-7.2246,-7.2364,-7.238,-7.2476,-7.2283,-7.2664,-7.2677,-7.269,-7.2861,-7.2892,-7.2918,0,0,0,0,0,-7.2211,-7.2354,-7.2307,-7.2324,-7.2387,-7.2465,-7.2472,-7.2413,-7.2331,-7.2397,-7.2375,-7.2295,-7.2457,-7.2377,-7.2394,-7.2493,-7.2657,-7.2674,-7.2689,-7.2849,-7.2886,-7.2917,0,0,0,0,0,0,-7.2377,-7.2351,-7.2299,-7.2442,-7.2457,-7.2438,-7.2519,-7.2455,-7.2492,-7.2475,-7.24,-7.24,-7.2526,-7.2521,-7.2432,-7.266,-7.2543,-7.2563,-7.2658,-7.2693,-7.2721,-7.2719,-7.2289,0,0,0,0,0,-7.243,-7.2497,-7.247,-7.2599,-7.2609,-7.2563,-7.2595,-7.2549,-7.256,-7.2565,-7.2552,-7.2566,-7.2619,-7.2656,-7.2704,-7.286,-7.2856,-7.2937,-7.2965,-7.2988,-7.3006,-7.3087,-7.3122,-7.2749,-7.2749,-7.2748,0,0,-7.2541,-7.2535,-7.2581,-7.2632,-7.2638,-7.2707,-7.2569,-7.2648,-7.2699,-7.2577,-7.2683,-7.2674,-7.2684,-7.282,-7.2879,-7.2819,-7.3109,-7.3008,-7.3027,-7.3032,-7.3107,-7.3142,-7.3174,-7.2759,-7.2757,-7.2756,0,0,-7.2777,-7.278,-7.2887,-7.2896,-7.2907,-7.2876,-7.2902,-7.2893,-7.2882,-7.2988,-7.2898,-7.2957,-7.3051,-7.3062,-7.308,-7.3322,-7.325,-7.334,-7.3486,-7.3566,-7.3595,-7.3621,-7.3706,-7.3737,-7.3357,-7.3358,-7.3358,0,-7.2913,-7.3014,-7.295,-7.3036,-7.306,-7.2954,-7.3062,-7.3073,-7.3099,-7.3118,-7.3052,-7.3168,-7.3167,-7.3303,-7.3363,-7.3381,-7.3408,-7.3339,-7.3597,-7.3622,-7.3645,-7.3725,-7.3757,-7.3369,-7.3367,-7.3366,-7.3365,0,-7.318,-7.3252,-7.3337,-7.3365,-7.3399,-7.3496,-7.3445,-7.3488,-7.3439,-7.3415,-7.3523,-7.352,-7.3564,-7.3593,-7.3546,-7.3723,-7.3686,-7.361,-7.349,-7.3692,-7.3766,-7.3796,-7.3384,-7.338,-7.3377,-7.3374,0,0,-7.352,-7.3512,-7.3544,-7.3555,-7.356,-7.3614,-7.3705,-7.3749,-7.3786,-7.3808,-7.3882,-7.3965,-7.3894,-7.3915,-7.3868,-7.3939,-7.4129,-7.3853,-7.3852,-7.3903,-7.4322,-7.4378,-7.4415,-7.4082,-7.4088,-7.4092,-7.4321,0,-7.3749,-7.3904,-7.385,-7.4008,-7.4073,-7.3974,-7.4053,-7.4064,-7.4045,-7.4096,-7.4074,-7.4133,-7.4036,-7.4048,-7.4114,-7.4092,-7.4212,-7.4075,-7.4149,-7.4152,-7.4147,-7.4454,-7.4513,-7.4729,-7.4349,-7.4354,-7.4358,0,-7.4037,-7.4071,-7.4236,-7.4229,-7.4254,-7.4327,-7.4362,-7.4414,-7.4424,-7.4405,-7.4429,-7.4367,-7.4455,-7.4338,-7.4457,-7.4366,-7.4393,-7.4387,-7.4394,-7.4397,-7.4266,-7.4463,-7.4796,-7.4828,-7.4403,-7.4399,-7.4396,0,-7.4266,-7.4354,-7.4463,-7.4476,-7.4471,-7.4524,-7.4525,-7.4529,-7.4559,-7.459,-7.4609,-7.4651,-7.4673,-7.4706,-7.4657,-7.4576,-7.4784,-7.4662,-7.4769,-7.4771,-7.4815,-7.4813,-7.5156,-7.4837,-7.4836,-7.4836,-7.4835,0,-7.4527,-7.4632,-7.4566,-7.4634,-7.4747,-7.4684,-7.4798,-7.4787,-7.4792,-7.4855,-7.4772,-7.4833,-7.4765,-7.482,-7.4782,-7.4886,-7.4897,-7.4883,-7.4872,-7.489,-7.4891,-7.4905,-7.4888,-7.4844,-7.4842,-7.4841,-7.4839,0,-7.4802,-7.4762,-7.4875,-7.4862,-7.4861,-7.4945,-7.4933,-7.4994,-7.4969,-7.505,-7.5065,-7.5026,-7.5085,-7.504,-7.5099,-7.5073,-7.5211,-7.5179,-7.5207,-7.5198,-7.5306,-7.5296,-7.5668,-7.5713,-7.5368,-7.5371,-7.5374,0,-7.497,-7.5048,-7.5043,-7.508,-7.5086,-7.5146,-7.5176,-7.5117,-7.5151,-7.517,-7.5229,-7.5282,-7.532,-7.542,-7.5396,-7.5441,-7.5408,-7.5535,-7.5414,-7.5429,-7.5408,-7.5403,-7.541,-7.5559,-7.5563,-7.5567,-7.557,0,-7.5272,-7.5248,-7.5296,-7.5337,-7.5376,-7.5405,-7.5427,-7.5462,-7.5402,-7.5445,-7.5505,-7.5536,-7.5596,-7.5649,-7.5685,-7.5684,-7.5617,-7.5609,-7.5635,-7.5653,-7.5666,-7.5658,-7.5272,-7.5599,-7.5596,-7.5594,-7.5593,-7.5591,-7.5496,-7.5561,-7.5568,-7.5623,-7.5634,-7.5657,-7.5714,-7.5696,-7.5746,-7.579,-7.5752,-7.5825,-7.5833,-7.5874,-7.5882,-7.5937,-7.5884,-7.5923,-7.5933,-7.5943,-7.5957,-7.5659,-7.5944,-7.5943,-7.5942,-7.5941,-7.594,0,-7.5792,-7.5792,-7.5844,-7.5878,-7.5922,-7.5856,-7.5878,-7.5918,-7.5983,-7.5997,-7.6037,-7.6106,-7.6157,-7.6138,-7.6183,-7.623,-7.6201,-7.6244,-7.6239,-7.6239,-7.6003,-7.5975,-7.6267,-7.6267,-7.6267,-7.6267,-7.6267,-7.6267,-7.5951,-7.6057,-7.6035,-7.6144,-7.6143,-7.6213,-7.6231,-7.6251,-7.6262,-7.6343,-7.6385,-7.6372,-7.6373,-7.6417,-7.6461,-7.6454,-7.6473,-7.6528,-7.651,-7.6289,-7.6256,-7.6225,-7.6198,-7.6533,-7.6534,-7.6741,-7.6743,-7.6744]},{"header":{"parameterUnit":"m.s-1","parameterCategory":1,"la1":30.2991,"la2":30.254,"lo1":-89.0895,"lo2":-89.0444,"dy":0.0017,"dx":0.0017,"nx":28,"ny":28,"refTime":"2024-10-17T21:00:00:Z","depth":0,"parameterNumber":3,"parameterNumberName":"V-component_of_WINDS"},"data":[0,0,0,0,0,0,0,0,0,0,0,0,0,0,0,0,0,0,0,0,0,0,0,0,0,0,0,0,0,0,0,0,0,0,0,0,0,0,0,0,0,0,0,0,0,0,0,0,0,0,0,0,0,0,0,0,0,0,-1.7612,-1.7611,0,-1.7552,-1.7552,-1.7551,-1.7502,-1.7502,-1.7501,-1.7501,-1.7442,-1.7441,-1.744,0,0,0,0,0,0,0,0,0,0,0,0,0,-1.7683,-1.7682,-1.7612,-1.7611,-1.761,-1.7552,-1.7552,-1.7551,-1.7502,-1.7502,-1.7501,-1.7501,-1.7442,-1.7441,-1.744,0,0,0,0,0,0,0,0,0,0,0,0,0,-1.7641,-1.7681,-1.7612,-1.7579,-1.7575,-1.7553,-1.7552,-1.7551,-1.7503,-1.7502,-1.7501,-1.75,-1.7443,-1.7441,-1.744,-1.7445,0,0,-1.7435,-1.7434,0,0,0,0,0,0,0,0,-1.7643,-1.7638,-1.7585,-1.7581,-1.7577,-1.7534,-1.7555,-1.7515,-1.7503,-1.753,-1.7501,-1.75,-1.7473,-1.7469,-1.746,-1.7442,-1.744,-1.7435,-1.7434,-1.7433,-1.7433,0,0,0,0,0,0,0,-1.7646,-1.764,-1.7588,-1.7584,-1.7579,-1.7567,-1.756,-1.7547,-1.7507,-1.7528,-1.7524,-1.7518,-1.7471,-1.7462,-1.7458,-1.7439,-1.7435,-1.7433,-1.7432,-1.7432,-1.742,-1.742,0,0,0,0,0,0,-1.7654,-1.7643,-1.759,-1.7586,-1.7609,-1.7567,-1.7559,-1.7549,-1.7507,-1.75,-1.7518,-1.7516,-1.7465,-1.746,-1.7456,-1.7457,-1.7433,-1.7431,-1.7431,-1.7419,-1.742,-1.742,0,0,0,0,0,0,-1.7656,-1.765,-1.7592,-1.7614,-1.7605,-1.7566,-1.7555,-1.7548,-1.7538,-1.75,-1.7492,-1.7516,-1.7464,-1.7458,-1.7447,-1.7454,-1.7431,-1.7429,-1.7418,-1.7419,-1.742,-1.7461,0,0,0,0,0,0,-1.7658,-1.7651,-1.7653,-1.7614,-1.7605,-1.7585,-1.7555,-1.7547,-1.7535,-1.7531,-1.7495,-1.7489,-1.7463,-1.745,-1.7446,-1.7452,-1.7428,-1.7417,-1.7419,-1.742,-1.7459,-1.7464,-1.7467,0,0,0,0,0,-1.7661,-1.7668,-1.7653,-1.7647,-1.7606,-1.7586,-1.758,-1.7549,-1.7536,-1.7537,-1.7512,-1.749,-1.7455,-1.7449,-1.7444,-1.745,-1.7417,-1.7418,-1.742,-1.7457,-1.7463,-1.7467,0,0,0,0,0,0,-1.7709,-1.7662,-1.7645,-1.764,-1.7617,-1.7577,-1.7578,-1.7557,-1.7538,-1.7535,-1.7498,-1.749,-1.7483,-1.7465,-1.746,-1.7451,-1.7433,-1.7433,-1.7463,-1.7468,-1.7472,-1.7476,-1.7427,0,0,0,0,0,-1.7719,-1.7706,-1.7666,-1.7665,-1.7654,-1.7618,-1.7608,-1.7586,-1.7561,-1.7552,-1.7526,-1.7503,-1.7486,-1.7476,-1.7459,-1.7456,-1.7447,-1.7458,-1.7462,-1.7465,-1.7466,-1.746,-1.7464,-1.7425,-1.7425,-1.7425,0,0,-1.774,-1.7713,-1.7707,-1.7674,-1.7654,-1.7641,-1.7611,-1.7599,-1.7589,-1.755,-1.7537,-1.7518,-1.7489,-1.7482,-1.7477,-1.7467,-1.7474,-1.7467,-1.747,-1.7469,-1.7462,-1.7466,-1.7469,-1.7426,-1.7426,-1.7426,0,0,-1.7771,-1.775,-1.7745,-1.7725,-1.7694,-1.7669,-1.7668,-1.7631,-1.7616,-1.7602,-1.7572,-1.756,-1.7533,-1.7512,-1.7499,-1.7519,-1.7497,-1.7515,-1.7536,-1.7531,-1.7534,-1.7537,-1.7542,-1.7544,-1.7516,-1.7516,-1.7516,0,-1.7801,-1.778,-1.7746,-1.7735,-1.772,-1.7683,-1.7678,-1.766,-1.7626,-1.7616,-1.7605,-1.7567,-1.7546,-1.7532,-1.7537,-1.7528,-1.7524,-1.7518,-1.7536,-1.7539,-1.754,-1.7545,-1.7547,-1.7518,-1.7518,-1.7517,-1.7517,0,-1.7817,-1.7803,-1.7803,-1.7768,-1.7754,-1.7746,-1.771,-1.77,-1.7679,-1.7655,-1.764,-1.7613,-1.7588,-1.7583,-1.7564,-1.7566,-1.756,-1.7543,-1.7524,-1.7547,-1.755,-1.7552,-1.7521,-1.752,-1.7519,-1.7519,0,0,-1.7878,-1.7823,-1.7823,-1.7806,-1.7767,-1.7756,-1.7745,-1.772,-1.771,-1.7687,-1.7677,-1.7653,-1.7636,-1.7621,-1.7598,-1.7594,-1.7608,-1.7577,-1.7576,-1.7582,-1.7607,-1.7619,-1.7621,-1.7594,-1.7594,-1.7594,-1.7608,0,-1.7901,-1.788,-1.7848,-1.7837,-1.7822,-1.7785,-1.7776,-1.7751,-1.7728,-1.7712,-1.7687,-1.767,-1.765,-1.764,-1.7634,-1.7608,-1.7613,-1.7607,-1.7583,-1.7582,-1.759,-1.7623,-1.7637,-1.7651,-1.761,-1.761,-1.761,0,-1.7926,-1.7903,-1.789,-1.785,-1.7842,-1.7834,-1.7807,-1.7792,-1.7763,-1.7746,-1.7728,-1.7702,-1.7688,-1.7671,-1.765,-1.7647,-1.7635,-1.762,-1.762,-1.7616,-1.7597,-1.7619,-1.7655,-1.7657,-1.7612,-1.7612,-1.7612,0,-1.7969,-1.7935,-1.7922,-1.7908,-1.7862,-1.7857,-1.7838,-1.7807,-1.7793,-1.7769,-1.7759,-1.7734,-1.7721,-1.7702,-1.767,-1.7661,-1.7652,-1.7633,-1.7637,-1.7638,-1.7637,-1.7637,-1.767,-1.7631,-1.7631,-1.7631,-1.7631,0,-1.7998,-1.7991,-1.794,-1.7932,-1.7922,-1.7885,-1.7877,-1.7854,-1.7827,-1.7813,-1.7781,-1.7769,-1.7728,-1.771,-1.7686,-1.7671,-1.7666,-1.7651,-1.7644,-1.7653,-1.7655,-1.7644,-1.7642,-1.7632,-1.7632,-1.7632,-1.7632,0,-1.8044,-1.801,-1.7993,-1.795,-1.7939,-1.7933,-1.7896,-1.7886,-1.7861,-1.7844,-1.7838,-1.7798,-1.7776,-1.7742,-1.771,-1.7693,-1.7682,-1.7672,-1.7692,-1.7687,-1.7693,-1.7692,-1.772,-1.7721,-1.7683,-1.7684,-1.7684,0,-1.8064,-1.8057,-1.8013,-1.8001,-1.7982,-1.7963,-1.7948,-1.7911,-1.7896,-1.786,-1.7854,-1.7829,-1.7807,-1.7773,-1.7741,-1.7716,-1.7704,-1.7715,-1.77,-1.7708,-1.7702,-1.7702,-1.77,-1.7719,-1.772,-1.772,-1.7721,0,-1.8102,-1.8085,-1.8064,-1.8036,-1.8018,-1.7995,-1.797,-1.7962,-1.7919,-1.7904,-1.788,-1.7863,-1.7829,-1.7804,-1.7774,-1.7753,-1.7729,-1.7725,-1.7725,-1.7733,-1.7744,-1.7736,-1.77,-1.7725,-1.7725,-1.7724,-1.7724,-1.7724,-1.8135,-1.8126,-1.8093,-1.8069,-1.8046,-1.8023,-1.8011,-1.7983,-1.7962,-1.7931,-1.791,-1.7887,-1.7855,-1.7812,-1.7792,-1.7773,-1.7763,-1.7763,-1.7762,-1.7763,-1.7765,-1.7748,-1.7768,-1.7768,-1.7768,-1.7767,-1.7767,0,-1.817,-1.8146,-1.8125,-1.809,-1.8071,-1.8049,-1.8019,-1.8005,-1.7985,-1.7957,-1.7935,-1.7906,-1.7881,-1.7846,-1.7818,-1.781,-1.7798,-1.7803,-1.7803,-1.7798,-1.7776,-1.7779,-1.7813,-1.7813,-1.7813,-1.7813,-1.7813,-1.7813,-1.8186,-1.8169,-1.8147,-1.8118,-1.8094,-1.807,-1.8055,-1.8033,-1.801,-1.7979,-1.7957,-1.7934,-1.7903,-1.7872,-1.7848,-1.7838,-1.7829,-1.7837,-1.7824,-1.7804,-1.78,-1.7796,-1.7798,-1.7836,-1.7836,-1.7847,-1.7848,-1.7848]}]]